Location: Boiro
(42.6475°N, 8.8834°W)
Time: 18:09:56
(UTC+01:00)

Vanguard 2 - Pass Details

Date: 07 December 2021
Orbit: 553 x 2936 km, 32.9° (Epoch: 21 January)

Event Time Altitude Azimuth Distance (km) Brightness Sun altitude
Rises 20:06:15 0° 255° (WSW) 4,044 12.7 -22.1°
Reaches altitude 10° 20:11:05 10° 227° (SW) 3,584 11.7 -23.0°
Maximum altitude 20:14:28 12° 206° (SSW) 3,734 11.4 -23.6°
Drops below altitude 10° 20:18:24 10° 185° (S) 4,299 11.5 -24.3°
Sets 20:25:56 0° 161° (SSE) 5,924 12.0 -25.7°
